Location: *
(38.9555°S, 57.3572°E)
Time: 01:19:13
(UTC+00:00)

IRS-1C Rocket - Pass Details

Date: 15 July 2020
Orbit: 800 x 806 km, 99.0° (Epoch: 06 August)

Event Time Altitude Azimuth Distance (km) Brightness Sun altitude
Exits shadow 15:21:20 26° 175° (S) 1,553 5.4 -25.5°
Maximum altitude 15:24:23 72° 253° (WSW) 855 4.3 -26.1°
Drops below altitude 10° 15:29:38 10° 337° (NNW) 2,386 6.9 -27.1°
Sets 15:31:58 0° 339° (NNW) 3,309 7.6 -27.6°
